Starlink 32643

operational
NORAD ID: 62233 Int'l Des: 2024-231 Owner: SPXS Country: US Constellation: starlink
LEOCIRCULAR

Über Starlink 32643

Beschreibung wird geladen...

Live-Position

3D-Globus wird geladen...

Nächste Überflüge

Höhenverlauf

Altitude vs Time

uPlot chart will show altitude changes over time

Zweizeiliger Elementsatz

1 62233U 24231R 25259.40073886 .00006130 00000-0 16306-3 0 9996
2 62233 53.1574 298.5556 0000816 43.8174 316.2895 15.39627382 45228
Epoch: 16. Sept. 2025 • Age: 36 hours

Aktueller Status

Höhe 453.9 km
Geschwindigkeit 7.64 km/s
Subsatellitenpunkt -23.72°S, 44.43°W
Startdatum 5. Dez. 2024
Alter 0.7 years
Typ internet

Technische Details

Klassifizierung Payload
Masse 730.00 kg
Trockenmasse 700.00 kg
Gesamtmasse 730.00 kg
Länge 0.30 m
Durchmesser 4.10 m
Spannweite 29.00 m
Form Box + pan
Hersteller SPXS
Bus-Typ Starlink V2M
Phasenstatus In Orbit
Besitzer/Staat SPXS/US

Große Konstellationen

Loading constellations...